Weather History for KFFX - October, 2012

Change the Weather History Date:

Thursday, October 18, 2012

  Actual Average (KMKG) Record (KMKG)
Temperature  
Mean Temperature 50 °F 50 °F  
Max Temperature 58 °F 58 °F 78 °F (1910)
Min Temperature 43 °F 42 °F 23 °F (1952)
Degree Days  
Heating Degree Days 14 15  
Month to date heating degree days 225  
Since 1 July heating degree days 398  
Cooling Degree Days 0 0  
Month to date cooling degree days 2  
Year to date cooling degree days 563  
Moisture  
Dew Point 47 °F    
Average Humidity 89    
Maximum Humidity 99    
Minimum Humidity 65    
Precipitation  
Precipitation 0.00 in 0.10 in 2.14 in (1923)
Month to date precipitation 1.80  
Year to date precipitation 26.27  
Snow  
Snow 0.00 in 0.00 in 4.60 in (1972)
Month to date snowfall 0.0  
Since 1 July snowfall 0.0  
Since 1 September snowfall 0.0  
Snow Depth -    
Sea Level Pressure  
Sea Level Pressure 29.40 in    
Wind  
Wind Speed 12 mph (SSE)    
Max Wind Speed 24 mph    
Max Gust Speed 41 mph    
Visibility 9 miles    
Events Rain    
T = Trace of Precipitation, MM = Missing Value Source: NWS Daily Summary

Daily Weather History Graph

Daily Weather History Graph

Search for Another Location

Airport or City:

Trip Planner

Search our weather history database for the weather conditions in past years. The results will help you decide how hot, cold, wet, or windy it might be!

Date:

Astronomy

Oct. 18, 2012 Rise Set
Actual Time 8:02 AM EDT 6:55 PM EDT
Civil Twilight 7:33 AM EDT 7:24 PM EDT
Nautical Twilight 7:00 AM EDT 7:57 PM EDT
Astronomical Twilight 6:26 AM EDT 8:30 PM EDT
Moon 11:49 AM EDT (10/18) 9:22 PM EDT (10/18)
Length of Visible Light 11h 50m
Length of Day
10h 52m
Waxing Crescent, 14% of the Moon is Illuminated
Oct 18
Waxing Crescent
Oct 21
First Quarter
Oct 29
Full
Nov 6
Last Quarter
Nov 13
New

Hourly Weather History & Observations

Time (EDT) Temp. Windchill Dew Point Humidity Pressure Visibility Wind Dir Wind Speed Gust Speed Precip Events Conditions
12:14 AM 57.4 °F - 54.9 °F 91% 29.39 in 10.0 mi ESE 16.1 mph 21.9 mph N/A   Overcast
12:35 AM 57.2 °F - 54.7 °F 91% 29.38 in 10.0 mi ESE 15.0 mph 23.0 mph N/A Rain Light Rain
12:54 AM 57.6 °F - 54.5 °F 90% 29.36 in 10.0 mi SE 13.8 mph 24.2 mph N/A Rain Rain
1:14 AM 57.6 °F - 54.5 °F 90% 29.35 in 10.0 mi SE 18.4 mph 24.2 mph N/A   Overcast
1:34 AM 57.6 °F - 54.7 °F 90% 29.35 in 10.0 mi SE 12.7 mph 20.7 mph N/A Rain Light Rain
1:55 AM 57.4 °F - 55.2 °F 92% 29.34 in 10.0 mi SE 10.4 mph 23.0 mph N/A Rain Rain
2:14 AM 57.7 °F - 55.0 °F 91% 29.32 in 10.0 mi ESE 15.0 mph 24.2 mph N/A   Overcast
2:34 AM 58.1 °F - 54.7 °F 88% 29.31 in 10.0 mi ESE 17.3 mph 25.3 mph N/A   Overcast
2:55 AM 58.5 °F - 54.5 °F 87% 29.31 in 10.0 mi SE 13.8 mph 34.5 mph N/A   Overcast
3:14 AM 57.7 °F - 54.5 °F 89% 29.31 in 5.0 mi SE 13.8 mph 23.0 mph N/A Rain Heavy Rain
3:35 AM 57.6 °F - 54.7 °F 90% 29.31 in 10.0 mi SE 10.4 mph 20.7 mph N/A Rain Rain
3:54 AM 57.2 °F - 54.9 °F 92% 29.30 in 10.0 mi ESE 12.7 mph 18.4 mph N/A Rain Light Rain
4:15 AM 56.7 °F - 55.0 °F 94% 29.28 in 10.0 mi SE 10.4 mph 16.1 mph N/A Rain Rain
4:34 AM 56.5 °F - 55.0 °F 95% 29.28 in 7.0 mi South 4.6 mph - N/A Rain Rain
4:54 AM 54.0 °F - 52.9 °F 96% 29.28 in 4.0 mi SSW 4.6 mph - N/A Rain Heavy Rain
5:15 AM 53.6 °F - 52.7 °F 97% 29.28 in 7.0 mi South 4.6 mph - N/A Rain Heavy Rain
5:34 AM 53.2 °F - 52.7 °F 98% 29.26 in 5.0 mi Calm Calm - N/A Rain Rain
5:55 AM 53.1 °F - 52.7 °F 99% 29.26 in 7.0 mi Calm Calm - N/A Rain Rain
6:14 AM 52.9 °F - 52.7 °F 99% 29.26 in 4.0 mi South 4.6 mph - N/A Rain Heavy Rain
6:35 AM 52.7 °F - 52.3 °F 99% 29.25 in 7.0 mi SW 5.8 mph - N/A Rain Rain
6:54 AM 52.5 °F - 52.2 °F 99% 29.27 in 5.0 mi SSW 13.8 mph 17.3 mph N/A Rain Heavy Rain
7:34 AM 51.1 °F - 50.0 °F 96% 29.29 in 7.0 mi SW 10.4 mph 20.7 mph N/A Rain Rain
7:54 AM 50.4 °F - 49.5 °F 97% 29.30 in 10.0 mi SSW 15.0 mph 21.9 mph N/A Rain Light Rain
8:14 AM 50.0 °F - 48.9 °F 96% 29.30 in 7.0 mi SSW 9.2 mph - N/A Rain Rain
8:34 AM 50.0 °F - 49.1 °F 97% 29.30 in 10.0 mi South 3.5 mph - N/A Rain Light Rain
8:55 AM 49.6 °F - 49.1 °F 98% 29.30 in 10.0 mi SSE 3.5 mph - N/A   Drizzle
9:14 AM 49.8 °F - 49.3 °F 98% 29.30 in 10.0 mi SSE 5.8 mph - N/A   Light Drizzle
9:35 AM 50.0 °F - 49.3 °F 97% 29.32 in 10.0 mi South 5.8 mph - N/A Rain Rain
9:54 AM 50.0 °F - 49.3 °F 97% 29.32 in 10.0 mi South 9.2 mph - N/A Rain Light Rain
10:14 AM 49.8 °F - 48.2 °F 94% 29.33 in 7.0 mi SSW 12.7 mph - N/A Rain Heavy Rain
10:35 AM 49.5 °F - 47.8 °F 94% 29.33 in 10.0 mi SSW 9.2 mph 16.1 mph N/A   Overcast
10:54 AM 49.3 °F - 47.3 °F 93% 29.34 in 10.0 mi South 9.2 mph - N/A   Overcast
11:15 AM 48.7 °F - 46.8 °F 93% 29.34 in 7.0 mi South 9.2 mph - N/A Rain Rain
11:34 AM 48.7 °F - 47.1 °F 94% 29.35 in 7.0 mi South 11.5 mph - N/A Rain Light Rain
11:55 AM 48.2 °F - 46.0 °F 92% 29.36 in 7.0 mi South 11.5 mph 18.4 mph N/A   Drizzle
12:14 PM 47.7 °F - 46.0 °F 94% 29.37 in 10.0 mi South 9.2 mph - N/A   Light Drizzle
12:34 PM 48.2 °F - 46.6 °F 94% 29.38 in 10.0 mi South 9.2 mph - N/A   Overcast
12:55 PM 50.5 °F - 47.3 °F 89% 29.38 in 10.0 mi South 13.8 mph 21.9 mph N/A   Overcast
1:14 PM 49.8 °F - 42.8 °F 77% 29.39 in 10.0 mi South 17.3 mph 24.2 mph N/A   Overcast
1:35 PM 49.8 °F - 41.7 °F 74% 29.40 in 10.0 mi South 17.3 mph 27.6 mph N/A   Overcast
1:54 PM 51.1 °F - 42.4 °F 72% 29.40 in 10.0 mi South 19.6 mph 31.1 mph N/A   Overcast
2:14 PM 51.4 °F - 40.3 °F 66% 29.40 in 10.0 mi South 16.1 mph 26.5 mph N/A   Overcast
2:35 PM 50.9 °F - 39.7 °F 66% 29.41 in 10.0 mi South 19.6 mph 25.3 mph N/A   Overcast
2:54 PM 50.9 °F - 39.6 °F 65% 29.41 in 10.0 mi South 19.6 mph 25.3 mph N/A   Overcast
3:15 PM 50.2 °F - 40.1 °F 68% 29.42 in 10.0 mi South 17.3 mph 21.9 mph N/A   Overcast
3:34 PM 50.7 °F - 39.6 °F 66% 29.42 in 10.0 mi South 15.0 mph 25.3 mph N/A   Drizzle
3:54 PM 48.9 °F - 40.3 °F 72% 29.43 in 10.0 mi SSE 13.8 mph 21.9 mph N/A Rain Rain
4:15 PM 48.2 °F - 41.4 °F 77% 29.44 in 10.0 mi SSE 11.5 mph 16.1 mph N/A   Overcast
4:34 PM 49.1 °F - 41.5 °F 75% 29.45 in 10.0 mi SSE 10.4 mph - N/A   Mostly Cloudy
4:55 PM 49.8 °F - 42.1 °F 75% 29.46 in 10.0 mi SSE 6.9 mph - N/A   Mostly Cloudy
5:14 PM 50.0 °F - 42.1 °F 74% 29.47 in 10.0 mi SSE 6.9 mph - N/A   Mostly Cloudy
5:34 PM 50.0 °F - 41.4 °F 72% 29.47 in 10.0 mi SE 4.6 mph - N/A   Scattered Clouds
5:55 PM 49.5 °F - 41.9 °F 75% 29.47 in 10.0 mi ESE 3.5 mph - N/A   Overcast
6:14 PM 49.1 °F - 42.4 °F 78% 29.47 in 10.0 mi East 5.8 mph - N/A   Overcast
6:35 PM 48.0 °F - 42.3 °F 80% 29.52 in 7.0 mi South 24.2 mph 41.4 mph N/A Rain Heavy Rain
6:54 PM 43.9 °F 37.2 °F 41.9 °F 93% 29.53 in 4.0 mi South 13.8 mph 27.6 mph N/A Rain Light Rain
7:14 PM 43.9 °F 39.9 °F 42.1 °F 93% 29.53 in 10.0 mi SSE 6.9 mph - N/A Rain Rain
7:35 PM 43.9 °F 41.3 °F 42.4 °F 95% 29.53 in 10.0 mi SE 4.6 mph - N/A Rain Light Rain
7:53 PM 44.1 °F 40.8 °F 42.8 °F 95% 29.54 in 10.0 mi SSE 5.8 mph - N/A Rain Light Rain
8:14 PM 44.6 °F 39.7 °F 43.2 °F 95% 29.54 in 10.0 mi SSE 9.2 mph - N/A Rain Rain
8:35 PM 44.6 °F 40.7 °F 43.3 °F 95% 29.55 in 10.0 mi SE 6.9 mph - N/A Rain Light Rain
8:54 PM 44.1 °F 39.0 °F 42.4 °F 94% 29.54 in 7.0 mi SE 9.2 mph 20.7 mph N/A Rain Rain
9:14 PM 44.2 °F 38.4 °F 42.8 °F 95% 29.54 in 10.0 mi ESE 11.5 mph 16.1 mph N/A Rain Rain
9:35 PM 44.2 °F 39.2 °F 43.0 °F 95% 29.55 in 7.0 mi SE 9.2 mph - N/A Rain Rain
9:54 PM 44.1 °F 38.6 °F 42.3 °F 93% 29.56 in 10.0 mi SSE 10.4 mph 17.3 mph N/A Rain Light Rain
10:14 PM 43.9 °F 39.9 °F 42.4 °F 95% 29.55 in 10.0 mi SE 6.9 mph - N/A   Drizzle
10:33 PM 43.7 °F 37.7 °F 42.3 °F 95% 29.56 in 10.0 mi SE 11.5 mph 17.3 mph N/A Rain Rain
10:54 PM 43.3 °F 39.2 °F 42.3 °F 96% 29.55 in 10.0 mi ESE 6.9 mph - N/A Rain Light Rain
11:15 PM 43.2 °F 38.4 °F 42.1 °F 96% 29.55 in 10.0 mi SE 8.1 mph 16.1 mph N/A Rain Rain
11:34 PM 43.2 °F 37.4 °F 42.1 °F 96% 29.55 in 10.0 mi SE 10.4 mph - N/A Rain Rain
11:55 PM 43.2 °F 38.4 °F 42.1 °F 96% 29.55 in 10.0 mi ESE 8.1 mph - N/A   Drizzle